Airfield :
LOGIN :

Register | Disclaimer

   EN    FR    IT 

 










Legend :    VFR   Marginal VFR   IFR   Intensive IFR   Very Intensive IFR
Visi :
Ceiling :
>= 8 km
>= 3000ft
5 to 8 km
1000 to 3000 ft
1500m to 5 km
500 to 1000 ft
800 to 1500m
200 to 500 ft
< 800m
< 200 ft
Symbols :   Thunderstorms  Fog  Heavy snow  Heavy precipitations  Wind > 20 kt
SIGMETs :     Misc.  Thunderstorms  Icing  Turbulence  Mountain Waves  Volcanic Ashes







- Airport Elevation : 313 ft
- Download approach charts


LFQA - Reims-Prunay

CURRENT METAR :
  • 211130Z AUTO 15005KT 9999 OVC040 18/12 Q1023

EXPIRED METARs :
  • 211100Z AUTO 16005KT 130V190 9999 OVC039 18/12 Q1024
  • 211030Z AUTO 20006KT 180V240 9999 BKN041 OVC047 18/12 Q1024
  • 211000Z AUTO 22006KT 200V260 //// // FEW038 BKN045 OVC064 18/12 Q1024
  • 210930Z AUTO 22004KT 180V350 9999 BKN048 OVC056 17/12 Q1024
  • 210900Z AUTO 18005KT CAVOK 17/12 Q1024

TAF N/A
No reported NOTAMs for that airfield.



MET'MAP, your aeronautical weather chart ! - Copyright ORBIFLY December 2007 - Disclaimer

ORBIFLY MET'MAP TEAM :

Programming & Development : Alexandra Zaïnal
Concept & Development : Baudouin d'Aumeries
Co-Development & Prog : Marc-Olivier Méhu
Technical & hardware support : Manuel Goepfert

Contact : metmap@orbifly.com




SOURCES & CREDITS :

   NOAA